Total_Precipitation_Accumulation
0.87 0.93 0.92 0.97 1.07 1.35 1.57 1.51 1.33 1.34 1.38 1.36 1.31 1.40 1.55 1.68 1.78 1.89 1.94 1.96 1.96 2.08 2.03 1.96 2.02 2.13 2.37 2.32 2.32 2.29 2.21 2.09 2.02 1.79 1.45 1.31 1.41 1.44 1.36 1.18 1.04 0.98 0.80
0.71 0.77 0.84 0.86 0.95 1.07 1.19 1.21 1.15 1.08 1.06 1.13 1.18 1.21 1.29 1.47 1.57 1.60 1.63 1.67 1.72 1.82 1.87 1.79 1.81 1.88 2.00 2.19 2.26 2.21 2.22 2.17 2.11 2.04 1.70 1.42 1.31 1.35 1.35 1.37 1.19 1.02 0.86
0.64 0.70 0.77 0.80 0.83 0.84 0.85 0.78 0.82 0.85 0.93 0.99 1.10 1.16 1.26 1.34 1.49 1.50 1.48 1.45 1.49 1.55 1.67 1.71 1.74 1.78 1.79 1.89 1.85 1.93 2.04 2.18 2.22 2.11 1.91 1.65 1.48 1.42 1.37 1.34 1.27 1.20 1.04
0.74 0.81 0.86 0.87 0.87 0.87 0.85 0.81 0.80 0.83 0.89 1.01 1.19 1.25 1.27 1.30 1.31 1.37 1.44 1.40 1.30 1.26 1.31 1.35 1.47 1.58 1.61 1.75 1.70 1.69 1.82 2.03 2.26 2.25 2.08 1.82 1.66 1.59 1.49 1.41 1.41 1.31 1.21
0.65 0.78 0.83 0.86 0.87 0.84 0.78 0.75 0.79 0.76 0.76 0.90 1.06 1.22 1.27 1.27 1.24 1.33 1.39 1.41 1.35 1.20 1.15 1.17 1.21 1.33 1.58 1.65 1.56 1.70 1.83 1.87 1.99 2.09 2.08 1.98 1.78 1.59 1.43 1.33 1.35 1.40 1.35
0.55 0.65 0.81 0.87 0.80 0.76 0.69 0.68 0.71 0.70 0.67 0.76 0.91 1.08 1.17 1.16 1.56 1.56 1.40 1.38 1.35 1.21 1.12 1.11 1.08 1.06 1.26 1.52 1.62 1.68 1.81 1.90 1.90 1.88 1.91 1.84 1.72 1.60 1.59 1.54 1.46 1.39 1.33
0.48 0.60 0.80 0.81 0.70 0.65 0.71 0.75 0.72 0.70 0.70 0.75 0.79 0.81 0.90 1.19 1.24 1.04 1.09 1.15 1.26 1.16 1.04 0.97 0.88 0.86 1.00 1.07 1.20 1.30 1.49 1.79 1.94 1.92 1.76 1.63 1.69 1.60 1.57 1.53 1.48 1.41 1.31
0.41 0.50 0.65 0.68 0.66 0.70 0.70 0.68 0.63 0.59 0.58 0.62 0.64 0.68 0.75 0.90 0.90 0.84 0.94 0.90 1.05 1.05 0.96 0.91 0.89 0.86 0.92 0.97 1.07 1.18 1.21 1.31 1.52 1.55 1.52 1.51 1.54 1.61 1.57 1.55 1.62 1.59 1.54
0.28 0.37 0.46 0.50 0.54 0.57 0.56 0.56 0.52 0.49 0.51 0.52 0.57 0.65 0.73 0.73 0.75 0.74 0.79 0.90 1.05 1.03 0.92 0.93 0.90 0.88 1.04 1.09 1.06 1.09 1.19 1.22 1.36 1.50 1.68 1.63 1.48 1.41 1.44 1.45 1.52 1.55 1.52
0.20 0.27 0.34 0.37 0.41 0.43 0.49 0.51 0.51 0.48 0.46 0.46 0.49 0.54 0.62 0.65 0.77 0.64 0.74 0.92 1.03 1.05 1.03 0.94 1.04 1.03 1.12 1.08 1.02 1.14 1.23 1.12 1.07 1.13 1.26 1.28 1.16 1.13 1.24 1.20 1.30 1.38 1.33
0.11 0.16 0.23 0.30 0.38 0.45 0.51 0.52 0.55 0.52 0.47 0.46 0.54 0.55 0.55 0.64 0.76 0.71 0.74 0.83 1.02 1.05 1.08 1.03 0.92 0.97 0.96 1.01 1.09 1.17 1.37 1.23 1.09 1.12 1.21 1.20 1.07 1.02 1.05 1.09 1.17 1.27 1.26
0.07 0.11 0.18 0.26 0.33 0.42 0.51 0.54 0.54 0.54 0.53 0.54 0.56 0.59 0.57 0.56 0.63 0.67 0.68 0.75 0.86 0.90 0.99 0.96 0.89 0.92 0.79 0.81 0.88 1.04 1.31 1.22 1.08 1.10 1.14 1.14 1.08 1.01 1.04 1.03 1.08 1.13 1.13
0.03 0.06 0.11 0.15 0.20 0.25 0.33 0.41 0.47 0.51 0.53 0.54 0.58 0.67 0.68 0.62 0.65 0.75 0.61 0.58 0.65 0.69 0.71 0.79 0.76 0.75 0.69 0.66 0.76 0.88 1.02 1.16 1.15 1.09 1.02 1.00 1.00 1.00 1.03 0.98 0.97 1.02 1.00
0.02 0.03 0.05 0.06 0.07 0.10 0.20 0.28 0.35 0.42 0.48 0.55 0.62 0.71 0.78 0.73 0.66 0.60 0.52 0.49 0.52 0.50 0.45 0.46 0.48 0.53 0.54 0.57 0.63 0.70 0.83 1.04 1.15 1.07 0.96 0.95 0.97 0.97 0.97 0.89 0.88 0.93 0.94
0.01 0.01 0.02 0.04 0.06 0.08 0.14 0.22 0.27 0.34 0.37 0.41 0.52 0.64 0.68 0.67 0.66 0.71 0.69 0.65 0.61 0.58 0.54 0.48 0.45 0.48 0.55 0.60 0.63 0.64 0.72 0.85 0.93 0.92 0.85 0.81 0.86 0.91 0.92 0.86 0.81 0.82 0.81
0.06 0.03 0.02 0.03 0.06 0.08 0.11 0.13 0.13 0.16 0.17 0.20 0.26 0.30 0.34 0.37 0.39 0.38 0.45 0.52 0.51 0.49 0.61 0.67 0.63 0.65 0.65 0.62 0.64 0.60 0.57 0.62 0.74 0.79 0.80 0.74 0.72 0.77 0.84 0.83 0.80 0.79 0.76
0.14 0.11 0.07 0.05 0.05 0.06 0.07 0.10 0.11 0.07 0.06 0.07 0.09 0.14 0.20 0.22 0.22 0.22 0.25 0.33 0.41 0.46 0.61 0.64 0.57 0.51 0.50 0.48 0.50 0.51 0.51 0.50 0.54 0.63 0.68 0.69 0.66 0.68 0.77 0.83 0.83 0.84 0.83
0.03 0.03 0.05 0.08 0.06 0.04 0.07 0.13 0.19 0.21 0.15 0.08 0.04 0.06 0.11 0.15 0.16 0.18 0.20 0.26 0.28 0.33 0.42 0.49 0.45 0.40 0.35 0.34 0.33 0.32 0.36 0.39 0.42 0.47 0.53 0.57 0.60 0.64 0.69 0.76 0.80 0.79 0.79
0.01 0.03 0.09 0.11 0.06 0.05 0.10 0.18 0.20 0.20 0.18 0.12 0.06 0.04 0.05 0.07 0.09 0.10 0.14 0.19 0.20 0.18 0.21 0.28 0.32 0.31 0.27 0.22 0.18 0.17 0.18 0.19 0.24 0.31 0.39 0.44 0.48 0.53 0.59 0.65 0.70 0.75 0.75
0.03 0.03 0.09 0.15 0.09 0.09 0.11 0.11 0.11 0.13 0.10 0.07 0.06 0.05 0.05 0.07 0.08 0.06 0.07 0.09 0.10 0.10 0.12 0.17 0.19 0.20 0.19 0.17 0.14 0.12 0.12 0.14 0.15 0.19 0.26 0.35 0.39 0.40 0.43 0.49 0.58 0.61 0.61
0.06 0.04 0.04 0.15 0.19 0.15 0.14 0.12 0.13 0.14 0.10 0.06 0.04 0.02 0.03 0.06 0.08 0.07 0.06 0.07 0.09 0.11 0.11 0.12 0.13 0.16 0.15 0.14 0.13 0.13 0.13 0.13 0.12 0.15 0.17 0.21 0.26 0.29 0.32 0.34 0.37 0.43 0.49
0.03 0.04 0.05 0.15 0.20 0.16 0.13 0.13 0.14 0.12 0.09 0.07 0.05 0.03 0.04 0.05 0.07 0.08 0.07 0.08 0.10 0.11 0.10 0.09 0.11 0.14 0.15 0.13 0.12 0.14 0.15 0.14 0.13 0.14 0.16 0.19 0.20 0.21 0.23 0.24 0.27 0.30 0.32
0.03 0.03 0.05 0.09 0.10 0.07 0.08 0.10 0.11 0.11 0.08 0.06 0.05 0.05 0.05 0.06 0.07 0.07 0.09 0.11 0.13 0.13 0.10 0.08 0.10 0.15 0.18 0.18 0.17 0.18 0.19 0.18 0.16 0.14 0.16 0.19 0.21 0.23 0.22 0.22 0.24 0.27 0.31
0.03 0.03 0.05 0.06 0.07 0.08 0.11 0.12 0.10 0.09 0.09 0.07 0.06 0.06 0.07 0.08 0.08 0.07 0.08 0.10 0.13 0.13 0.11 0.09 0.11 0.13 0.16 0.20 0.23 0.23 0.22 0.21 0.17 0.15 0.15 0.17 0.19 0.21 0.22 0.24 0.26 0.28 0.32
0.04 0.04 0.05 0.06 0.07 0.08 0.09 0.10 0.10 0.10 0.11 0.11 0.10 0.08 0.08 0.09 0.10 0.08 0.07 0.08 0.10 0.10 0.09 0.09 0.11 0.15 0.19 0.20 0.23 0.26 0.32 0.32 0.25 0.20 0.18 0.19 0.20 0.22 0.25 0.27 0.30 0.34 0.38
0.04 0.03 0.04 0.06 0.08 0.09 0.09 0.11 0.10 0.10 0.10 0.11 0.12 0.13 0.13 0.12 0.11 0.10 0.10 0.10 0.09 0.09 0.11 0.12 0.13 0.16 0.19 0.20 0.20 0.21 0.24 0.23 0.23 0.23 0.19 0.19 0.21 0.24 0.28 0.32 0.35 0.41 0.46